Location: Newark
(15.4608°S, 41.1635°W)
Time: 17:40:05
(UTC+00:00)

Vanguard 3 - Pass Details

Date: 07 August 2021
Orbit: 510 x 3260 km, 33.3° (Epoch: 21 September)

Event Time Altitude Azimuth Distance (km) Brightness Sun altitude
Rises 03:21:01 0° 314° (NW) 7,156 11.9 -82.6°
Enters shadow 03:22:10 - 314° (NW) 6,900 11.8 -82.3°
Reaches altitude 10° 03:26:13 10° 317° (NW) 5,981 - -81.4°
Maximum altitude 03:43:37 63° 33° (NNE) 2,486 - -77.2°
Drops below altitude 10° 03:54:01 10° 111° (ESE) 3,769 - -74.7°
Sets 03:56:31 0° 114° (ESE) 4,458 - -74.1°
